When you browse on this site, cookies collect data to enhance your experience and personalize the content and advertising you see.
Visit our Privacy Policy to learn more. By continuing to use the site, you agree to this use of cookies and data.
  • In Hungary
  • List of Countries
  • For 7 days
  • Water Temperature
  • Weather Map
  • News
  • Weather Widgets
  • user-avatar
    Login

    Hourly Weather Brusilovo

    Today, 25 January, Saturday

    Time Temperature Precipitation Wind Pressure Humidity
    00:00 -1°C° 0.2 mm 4 mps 735 mmHg 96%
    01:00 -1°C° 0.2 mm 4 mps 735 mmHg 95%
    02:00 -1°C° 0.2 mm 5 mps 735 mmHg 93%
    03:00 -1°C° 0 mm 4 mps 735 mmHg 91%
    04:00 -1°C° 0 mm 4 mps 734 mmHg 88%
    05:00 -1°C° 0 mm 4 mps 734 mmHg 85%
    06:00 -2°C° 0 mm 4 mps 734 mmHg 86%
    07:00 -2°C° 0 mm 4 mps 734 mmHg 88%
    08:00 -1°C° 0 mm 3 mps 734 mmHg 89%
    09:00 -1°C° 0 mm 4 mps 733 mmHg 87%
    10:00 -1°C° 0 mm 5 mps 733 mmHg 85%
    11:00 0°C° 0 mm 5 mps 732 mmHg 83%
    12:00 -2°C° 0.3 mm 6 mps 732 mmHg 78%
    13:00 -2°C° 0.3 mm 6 mps 732 mmHg 73%
    14:00 -2°C° 0.3 mm 6 mps 732 mmHg 69%
    15:00 -3°C° 0 mm 6 mps 733 mmHg 71%
    16:00 -4°C° 0 mm 6 mps 734 mmHg 74%
    17:00 -4°C° 0 mm 6 mps 734 mmHg 76%
    18:00 -5°C° 0 mm 6 mps 735 mmHg 78%
    19:00 -5°C° 0 mm 6 mps 735 mmHg 80%
    20:00 -5°C° 0 mm 6 mps 735 mmHg 83%
    21:00 -5°C° 0 mm 6 mps 736 mmHg 81%
    22:00 -5°C° 0 mm 6 mps 737 mmHg 80%
    23:00 -5°C° 0 mm 6 mps 738 mmHg 79%

    Tomorrow, 26 January, Sunday

    Time Temperature Precipitation Wind Pressure Humidity
    00:00 -5°C° 0 mm 6 mps 739 mmHg 79%
    01:00 -6°C° 0 mm 5 mps 740 mmHg 79%
    02:00 -6°C° 0 mm 5 mps 741 mmHg 79%
    03:00 -6°C° 0 mm 5 mps 741 mmHg 80%
    04:00 -5°C° 0 mm 4 mps 742 mmHg 80%
    05:00 -7°C° 0 mm 4 mps 742 mmHg 81%
    06:00 -7°C° 0 mm 4 mps 743 mmHg 82%
    07:00 -6°C° 0 mm 3 mps 744 mmHg 82%
    08:00 -6°C° 0 mm 3 mps 744 mmHg 83%
    09:00 -5°C° 0 mm 3 mps 744 mmHg 81%
    10:00 -4°C° 0 mm 3 mps 745 mmHg 80%
    11:00 -4°C° 0 mm 4 mps 745 mmHg 78%
    12:00 -3°C° 0 mm 4 mps 744 mmHg 77%
    13:00 -3°C° 0 mm 4 mps 744 mmHg 77%
    14:00 -4°C° 0 mm 5 mps 744 mmHg 76%
    15:00 -4°C° 0.2 mm 5 mps 743 mmHg 81%
    16:00 -2°C° 0.2 mm 5 mps 742 mmHg 85%
    17:00 -3°C° 0.2 mm 6 mps 741 mmHg 90%
    18:00 -3°C° 0.1 mm 6 mps 741 mmHg 91%
    19:00 -2°C° 0.1 mm 6 mps 740 mmHg 93%
    20:00 -1°C° 0.1 mm 6 mps 740 mmHg 94%
    21:00 +1°C° 0.1 mm 6 mps 740 mmHg 93%
    22:00 +1°C° 0.1 mm 5 mps 740 mmHg 92%
    23:00 +1°C° 0.1 mm 5 mps 740 mmHg 91%

    Day after tomorrow, 27 January, Monday

    Time Temperature Precipitation Wind Pressure Humidity
    00:00 +1°C° 0 mm 5 mps 740 mmHg 91%
    01:00 +1°C° 0 mm 5 mps 741 mmHg 91%
    02:00 +1°C° 0 mm 5 mps 741 mmHg 90%
    03:00 +1°C° 0.1 mm 5 mps 741 mmHg 92%
    04:00 +1°C° 0.1 mm 4 mps 742 mmHg 94%
    05:00 +1°C° 0.1 mm 4 mps 742 mmHg 95%
    06:00 0°C° 0.2 mm 4 mps 743 mmHg 96%
    07:00 +1°C° 0.2 mm 3 mps 743 mmHg 96%
    08:00 +1°C° 0.2 mm 3 mps 743 mmHg 97%
    09:00 +1°C° 0.1 mm 2 mps 744 mmHg 97%
    10:00 +1°C° 0.1 mm 2 mps 744 mmHg 97%
    11:00 +2°C° 0.1 mm 1 mps 745 mmHg 96%
    12:00 +1°C° 0.1 mm 1 mps 745 mmHg 96%
    13:00 +1°C° 0.1 mm 1 mps 745 mmHg 96%
    14:00 +1°C° 0.1 mm 1 mps 745 mmHg 95%
    15:00 -1°C° 0.3 mm 2 mps 745 mmHg 96%
    16:00 -1°C° 0.3 mm 2 mps 745 mmHg 96%
    17:00 -2°C° 0.3 mm 2 mps 745 mmHg 97%
    18:00 -2°C° 0.4 mm 2 mps 745 mmHg 97%
    19:00 -2°C° 0.4 mm 2 mps 745 mmHg 97%
    20:00 -2°C° 0.4 mm 3 mps 746 mmHg 97%
    21:00 -2°C° 0.4 mm 2 mps 745 mmHg 97%
    22:00 -2°C° 0.4 mm 2 mps 745 mmHg 97%
    23:00 -2°C° 0.4 mm 2 mps 745 mmHg 97%

    28 January, Tuesday

    Time Temperature Precipitation Wind Pressure Humidity
    00:00 -1°C° 0.2 mm 2 mps 745 mmHg 97%
    01:00 -1°C° 0.2 mm 2 mps 745 mmHg 97%
    02:00 +1°C° 0.2 mm 1 mps 744 mmHg 98%
    03:00 +1°C° 0.3 mm 1 mps 744 mmHg 98%
    04:00 +2°C° 0.3 mm 1 mps 744 mmHg 98%
    05:00 +2°C° 0.3 mm 1 mps 744 mmHg 98%
    06:00 +1°C° 0.2 mm 2 mps 744 mmHg 98%
    07:00 +1°C° 0.2 mm 2 mps 744 mmHg 98%
    08:00 +1°C° 0.2 mm 2 mps 744 mmHg 98%
    09:00 +1°C° 0.2 mm 2 mps 744 mmHg 98%
    10:00 +1°C° 0.2 mm 2 mps 744 mmHg 98%
    11:00 +1°C° 0.2 mm 2 mps 744 mmHg 98%
    12:00 +1°C° 0.2 mm 2 mps 744 mmHg 98%
    13:00 +1°C° 0.2 mm 2 mps 743 mmHg 98%
    14:00 +1°C° 0.2 mm 2 mps 743 mmHg 98%
    15:00 +1°C° 0 mm 2 mps 743 mmHg 98%
    16:00 +1°C° 0 mm 2 mps 743 mmHg 98%
    17:00 -1°C° 0 mm 2 mps 743 mmHg 97%
    18:00 -1°C° 0.1 mm 2 mps 743 mmHg 97%
    19:00 -1°C° 0.1 mm 2 mps 743 mmHg 97%
    20:00 -1°C° 0.1 mm 2 mps 743 mmHg 97%
    21:00 -1°C° 0.1 mm 2 mps 742 mmHg 97%
    22:00 -1°C° 0.1 mm 2 mps 742 mmHg 97%
    23:00 -1°C° 0.1 mm 2 mps 742 mmHg 98%

    29 January, Wednesday

    Time Temperature Precipitation Wind Pressure Humidity
    00:00 -1°C° 0.3 mm 2 mps 742 mmHg 98%
    01:00 0°C° 0.3 mm 3 mps 742 mmHg 98%
    02:00 0°C° 0.3 mm 3 mps 742 mmHg 98%
    03:00 0°C° 0.2 mm 3 mps 742 mmHg 98%
    04:00 +1°C° 0.2 mm 2 mps 742 mmHg 98%
    05:00 +1°C° 0.2 mm 2 mps 742 mmHg 98%
    06:00 0°C° 0.1 mm 3 mps 742 mmHg 98%
    07:00 0°C° 0.1 mm 3 mps 742 mmHg 97%
    08:00 0°C° 0.1 mm 3 mps 742 mmHg 97%
    09:00 0°C° 0 mm 3 mps 742 mmHg 96%
    10:00 0°C° 0 mm 3 mps 742 mmHg 95%
    11:00 0°C° 0 mm 3 mps 742 mmHg 94%
    12:00 0°C° 0 mm 3 mps 742 mmHg 95%
    13:00 0°C° 0 mm 3 mps 742 mmHg 96%
    14:00 0°C° 0 mm 3 mps 741 mmHg 96%
    15:00 0°C° 0 mm 3 mps 741 mmHg 97%
    16:00 0°C° 0 mm 3 mps 741 mmHg 97%
    17:00 0°C° 0 mm 3 mps 741 mmHg 97%
    18:00 0°C° 0 mm 3 mps 741 mmHg 97%
    19:00 0°C° 0 mm 3 mps 741 mmHg 97%
    20:00 0°C° 0 mm 3 mps 741 mmHg 97%
    21:00 0°C° 0 mm 3 mps 740 mmHg 97%
    22:00 0°C° 0 mm 3 mps 740 mmHg 96%
    23:00 0°C° 0 mm 3 mps 740 mmHg 96%

    30 January, Thursday

    Time Temperature Precipitation Wind Pressure Humidity
    00:00 0°C° 0 mm 3 mps 740 mmHg 96%
    01:00 -1°C° 0 mm 4 mps 740 mmHg 95%
    02:00 -1°C° 0 mm 4 mps 739 mmHg 95%
    03:00 -1°C° 0.1 mm 4 mps 739 mmHg 96%
    04:00 -1°C° 0.1 mm 4 mps 739 mmHg 96%
    05:00 -1°C° 0.1 mm 4 mps 738 mmHg 97%
    06:00 -1°C° 0.1 mm 4 mps 738 mmHg 97%
    07:00 -1°C° 0.1 mm 4 mps 738 mmHg 97%
    08:00 -1°C° 0.1 mm 5 mps 737 mmHg 97%
    09:00 -1°C° 0.2 mm 4 mps 737 mmHg 97%
    10:00 -2°C° 0.2 mm 4 mps 737 mmHg 96%
    11:00 -2°C° 0.2 mm 4 mps 737 mmHg 96%
    12:00 -2°C° 0.2 mm 4 mps 736 mmHg 96%
    13:00 -2°C° 0.2 mm 4 mps 736 mmHg 95%
    14:00 -2°C° 0.2 mm 4 mps 736 mmHg 95%
    15:00 -2°C° 0.3 mm 4 mps 736 mmHg 95%
    16:00 -2°C° 0.3 mm 4 mps 735 mmHg 96%
    17:00 -3°C° 0.3 mm 4 mps 735 mmHg 96%
    18:00 -3°C° 0.4 mm 4 mps 735 mmHg 96%
    19:00 -3°C° 0.4 mm 4 mps 735 mmHg 96%
    20:00 -3°C° 0.4 mm 4 mps 735 mmHg 95%
    21:00 -4°C° 0.2 mm 4 mps 735 mmHg 95%
    22:00 -4°C° 0.2 mm 3 mps 735 mmHg 95%
    23:00 -4°C° 0.2 mm 3 mps 735 mmHg 95%
    Show more